Simultaneous Nadir Overpasses (SNOs) Predictions

Prediction of SNOs between AQUA and METOP-C Satellite Orbit:

Table of predicted SNOs for the next 14.0 days since TLE Epoch: 7/23/2022
Index Date (AQUA) Time (AQUA) Lat,Lon (AQUA) SZA (AQUA ) Date (METOP-C) Time (METOP-C) Lat,Lon (METOP-C) SZA (METOP-C ) Distance(km) Time Diff (sec)
1 07/25/2022 05:23:27 -73.95, -86.10 125.66 07/25/2022 05:22:32 -73.96, -86.07 125.64 1.25 55
2 07/25/2022 06:12:55 74.00, 81.44 54.40 07/25/2022 06:13:11 73.99, 81.34 54.40 3.15 16
3 07/25/2022 07:02:33 -74.66,-112.50 124.87 07/25/2022 07:03:39 -74.67,-109.59 124.98 85.84 66
4 07/28/2022 00:07:30 73.49, 173.88 54.47 07/28/2022 00:06:22 73.44, 171.79 54.51 66.23 68
5 07/28/2022 00:57:05 -74.01, -19.61 124.97 07/28/2022 00:56:53 -73.98, -19.61 125.00 3.01 12
6 07/28/2022 01:46:33 74.06, 147.91 55.09 07/28/2022 01:47:31 74.06, 147.93 55.09 0.74 58
7 07/30/2022 19:41:15 73.94,-120.50 55.62 07/30/2022 19:40:33 73.96,-120.59 55.65 3.26 42
8 07/30/2022 20:30:42 -74.03, 46.94 124.28 07/30/2022 20:31:13 -74.04, 46.95 124.27 1.18 31
9 08/02/2022 14:25:23 -73.94, 138.49 123.69 08/02/2022 14:24:14 -73.93, 138.42 123.69 2.50 69
10 08/02/2022 15:14:51 74.00, -54.01 56.39 08/02/2022 15:14:52 74.02, -54.03 56.41 2.08 1
11 08/02/2022 16:04:19 -74.14, 113.31 123.46 08/02/2022 16:05:31 -74.15, 113.63 123.47 9.68 72
12 08/05/2022 09:58:59 -73.97,-154.96 122.92 08/05/2022 09:58:34 -73.98,-155.05 122.89 3.17 25
13 08/05/2022 10:48:28 74.09, 12.41 57.22 08/05/2022 10:49:12 74.08, 12.52 57.21 3.59 44



Historial Predications of SNOs between AQUA and METOP-C
